MCA123 VTBD-WMKK

Flight info

Callsign MCA123
Flight time N/A
Altitude 35000
Route VTBD/21R KASNA3A KASNA DCT REGOS A464 RELIP HTY A457 VAS Y502 RINBA Y507 ANBIK KAKAK KAKAK2J WMKK/32L
Aircraft A319/L-SDE3GILORW/C

Departure

Time 2026-04-29 05:29
Airport Don Mueang International Airport (VTBD)

Arrival

Time N/A
Airport Kuala Lumpur International Airport (WMKK)
Time Latitude Longitude Altitude Speed Heading
2026-04-29 05:20 13.92068 100.60561 29 ft 0 kts 209°
2026-04-29 05:25 13.92071 100.60564 29 ft 1 kts 218°
2026-04-29 05:25 13.92121 100.60591 29 ft 5 kts 155°
2026-04-29 05:25 13.92136 100.60583 29 ft 4 kts 143°
2026-04-29 05:25 13.92131 100.60620 28 ft 7 kts 120°
2026-04-29 05:26 13.92098 100.60682 27 ft 11 kts 118°
2026-04-29 05:26 13.92097 100.60751 25 ft 10 kts 32°
2026-04-29 05:26 13.92162 100.60786 26 ft 11 kts 28°
2026-04-29 05:26 13.92233 100.60825 26 ft 12 kts 28°
2026-04-29 05:27 13.92309 100.60868 27 ft 13 kts 29°
2026-04-29 05:27 13.92272 100.60982 22 ft 12 kts 121°
2026-04-29 05:27 13.92229 100.61016 21 ft 6 kts 218°
2026-04-29 05:28 13.92121 100.60951 22 ft 43 kts 209°
2026-04-29 05:28 13.91653 100.60689 25 ft 105 kts 208°
2026-04-29 05:28 13.90860 100.60245 62 ft 150 kts 208°
2026-04-29 05:28 13.90123 100.59842 396 ft 154 kts 208°
2026-04-29 05:29 13.89165 100.59324 909 ft 159 kts 208°
2026-04-29 05:29 13.88162 100.58779 1397 ft 170 kts 208°
2026-04-29 05:29 13.87113 100.58121 1873 ft 186 kts 218°
2026-04-29 05:29 13.86312 100.57052 2376 ft 199 kts 252°
2026-04-29 05:30 13.86006 100.55626 2910 ft 213 kts 262°
2026-04-29 05:30 13.85734 100.54054 3423 ft 232 kts 259°
2026-04-29 05:30 13.85341 100.52395 3928 ft 250 kts 256°
2026-04-29 05:30 13.84819 100.50600 4440 ft 269 kts 253°
2026-04-29 05:31 13.84076 100.48784 4937 ft 289 kts 243°
2026-04-29 05:31 13.82916 100.47013 5441 ft 307 kts 231°
2026-04-29 05:31 13.81432 100.45334 5950 ft 325 kts 227°
2026-04-29 05:31 13.79811 100.43674 6441 ft 342 kts 221°
2026-04-29 05:32 13.77713 100.42414 6930 ft 358 kts 200°
2026-04-29 05:32 13.75194 100.41997 7429 ft 372 kts 178°
2026-04-29 05:32 13.72591 100.42208 7939 ft 385 kts 173°
2026-04-29 05:32 13.69906 100.42518 8440 ft 396 kts 173°
2026-04-29 05:33 13.67138 100.42823 8943 ft 401 kts 173°
2026-04-29 05:33 13.64358 100.43104 9446 ft 404 kts 174°
2026-04-29 05:33 13.61567 100.43373 9947 ft 407 kts 174°
2026-04-29 05:33 13.58748 100.43688 10443 ft 409 kts 168°
2026-04-29 05:34 13.56088 100.44651 10927 ft 409 kts 149°
2026-04-29 05:34 13.53865 100.46436 11423 ft 408 kts 130°
2026-04-29 05:34 13.52132 100.48707 11929 ft 410 kts 124°
2026-04-29 05:34 13.50466 100.51101 12432 ft 413 kts 123°
2026-04-29 05:35 13.48811 100.53491 12932 ft 416 kts 123°
2026-04-29 05:35 13.47101 100.55930 13442 ft 418 kts 124°
2026-04-29 05:35 13.45390 100.58341 13944 ft 421 kts 124°
2026-04-29 05:35 13.43661 100.60763 14446 ft 423 kts 124°
2026-04-29 05:36 13.41916 100.63200 14949 ft 426 kts 124°
2026-04-29 05:36 13.40010 100.65511 15435 ft 431 kts 136°
2026-04-29 05:36 13.37490 100.67223 15943 ft 439 kts 154°
2026-04-29 05:36 13.34554 100.68063 16448 ft 445 kts 172°
2026-04-29 05:37 13.31439 100.68152 16967 ft 449 kts 179°
2026-04-29 05:37 13.28328 100.68089 17468 ft 452 kts 180°
2026-04-29 05:37 13.25167 100.68012 17974 ft 455 kts 180°
2026-04-29 05:37 13.22032 100.67956 18472 ft 458 kts 180°
2026-04-29 05:38 13.18854 100.67920 18975 ft 460 kts 179°
2026-04-29 05:38 13.15626 100.67897 19483 ft 463 kts 179°
2026-04-29 05:38 13.12421 100.67879 19985 ft 466 kts 179°
2026-04-29 05:38 13.09209 100.67846 20484 ft 469 kts 180°
2026-04-29 05:39 13.05928 100.67670 20992 ft 472 kts 183°
2026-04-29 05:39 13.02682 100.67396 21493 ft 474 kts 184°
2026-04-29 05:39 12.99379 100.67100 22000 ft 477 kts 184°
2026-04-29 05:39 12.96104 100.66802 22500 ft 478 kts 184°
2026-04-29 05:40 12.92760 100.66499 23009 ft 480 kts 184°
2026-04-29 05:40 12.89455 100.66198 23510 ft 481 kts 184°
2026-04-29 05:40 12.86115 100.65897 23924 ft 484 kts 184°
2026-04-29 05:40 12.82743 100.65596 24075 ft 493 kts 184°
2026-04-29 05:41 12.79318 100.65290 24241 ft 499 kts 184°
2026-04-29 05:41 12.75886 100.64983 24547 ft 502 kts 184°
2026-04-29 05:41 12.72402 100.64671 25024 ft 501 kts 184°
2026-04-29 05:41 12.68941 100.64359 25566 ft 498 kts 184°
2026-04-29 05:42 12.65531 100.64053 26077 ft 496 kts 183°
2026-04-29 05:42 12.62126 100.63747 26540 ft 494 kts 183°
2026-04-29 05:42 12.58692 100.63440 26990 ft 493 kts 183°
2026-04-29 05:42 12.55312 100.63137 27424 ft 492 kts 183°
2026-04-29 05:43 12.51900 100.62832 27865 ft 491 kts 183°
2026-04-29 05:43 12.48524 100.62530 28300 ft 489 kts 183°
2026-04-29 05:43 12.45176 100.62231 28717 ft 488 kts 183°
2026-04-29 05:43 12.41787 100.61928 29131 ft 486 kts 183°
2026-04-29 05:44 12.38432 100.61628 29535 ft 485 kts 183°
2026-04-29 05:44 12.35088 100.61329 29929 ft 484 kts 183°
2026-04-29 05:44 12.31758 100.61031 30312 ft 482 kts 183°
2026-04-29 05:44 12.28472 100.60738 30677 ft 481 kts 182°
2026-04-29 05:45 12.25126 100.60439 31048 ft 480 kts 182°
2026-04-29 05:45 12.21830 100.60146 31408 ft 478 kts 182°
2026-04-29 05:45 12.18529 100.59849 31761 ft 477 kts 182°
2026-04-29 05:45 12.15255 100.59557 32103 ft 476 kts 182°
2026-04-29 05:46 12.11961 100.59262 32438 ft 475 kts 182°
2026-04-29 05:46 12.08677 100.58969 32763 ft 474 kts 182°
2026-04-29 05:46 12.05441 100.58680 33078 ft 472 kts 182°
2026-04-29 05:46 12.02190 100.58390 33395 ft 471 kts 182°
2026-04-29 05:47 11.98944 100.58170 33692 ft 469 kts 180°
2026-04-29 05:47 11.95703 100.58041 33979 ft 468 kts 179°
2026-04-29 05:47 11.92427 100.57922 34268 ft 467 kts 179°
2026-04-29 05:47 11.89205 100.57807 34543 ft 466 kts 179°
2026-04-29 05:48 11.85998 100.57693 34787 ft 465 kts 179°
2026-04-29 05:48 11.82762 100.57576 34848 ft 468 kts 179°
2026-04-29 05:48 11.76228 100.57340 34857 ft 474 kts 179°
2026-04-29 05:49 11.69626 100.57096 34857 ft 474 kts 179°
2026-04-29 05:49 11.63093 100.56854 34857 ft 474 kts 179°
2026-04-29 05:50 11.56497 100.56611 34857 ft 474 kts 179°
2026-04-29 05:50 11.49928 100.56368 34857 ft 474 kts 179°
2026-04-29 05:51 11.43369 100.56126 34857 ft 475 kts 179°
2026-04-29 05:51 11.36793 100.55884 34857 ft 475 kts 179°
2026-04-29 05:52 11.30235 100.55643 34857 ft 475 kts 179°
2026-04-29 05:52 11.23626 100.55399 34857 ft 475 kts 179°
2026-04-29 05:53 11.17059 100.55157 34857 ft 475 kts 179°
2026-04-29 05:53 11.10468 100.54915 34857 ft 475 kts 179°
2026-04-29 05:54 11.03893 100.54673 34857 ft 475 kts 179°
2026-04-29 05:54 10.97335 100.54436 34858 ft 473 kts 180°
2026-04-29 05:55 10.90847 100.54202 34858 ft 470 kts 180°
2026-04-29 05:55 10.84334 100.53964 34857 ft 469 kts 181°
2026-04-29 05:56 10.77811 100.53720 34857 ft 469 kts 181°
2026-04-29 05:56 10.71310 100.53480 34857 ft 469 kts 181°
2026-04-29 05:57 10.64799 100.53240 34861 ft 469 kts 181°
2026-04-29 05:57 10.58314 100.53002 34875 ft 469 kts 181°
2026-04-29 05:58 10.51818 100.52765 34891 ft 469 kts 181°
2026-04-29 05:58 10.45285 100.52525 34900 ft 469 kts 181°
2026-04-29 05:59 10.38786 100.52288 34906 ft 469 kts 181°
2026-04-29 05:59 10.32272 100.52049 34909 ft 469 kts 181°
2026-04-29 06:00 10.25779 100.51812 34910 ft 469 kts 181°
2026-04-29 06:00 10.19271 100.51574 34911 ft 469 kts 181°
2026-04-29 06:01 10.12802 100.51337 34910 ft 469 kts 181°
2026-04-29 06:01 10.06293 100.51099 34910 ft 469 kts 181°
2026-04-29 06:02 9.99788 100.50863 34910 ft 469 kts 181°
2026-04-29 06:02 9.93314 100.50626 34910 ft 469 kts 181°
2026-04-29 06:03 9.86782 100.50388 34910 ft 469 kts 181°
2026-04-29 06:03 9.80299 100.50153 34910 ft 469 kts 181°
2026-04-29 06:04 9.73774 100.49915 34910 ft 469 kts 181°
2026-04-29 06:04 9.67269 100.49679 34910 ft 469 kts 181°
2026-04-29 06:05 9.60777 100.49442 34910 ft 469 kts 181°
2026-04-29 06:05 9.54279 100.49205 34910 ft 469 kts 181°
2026-04-29 06:06 9.47784 100.48968 34911 ft 470 kts 181°
2026-04-29 06:06 9.41266 100.48731 34910 ft 471 kts 181°
2026-04-29 06:07 9.34761 100.48495 34910 ft 471 kts 181°
2026-04-29 06:07 9.28238 100.48257 34910 ft 471 kts 181°
2026-04-29 06:08 9.21710 100.48020 34910 ft 471 kts 181°
2026-04-29 06:08 9.15159 100.47782 34910 ft 471 kts 181°
2026-04-29 06:09 9.08671 100.47546 34911 ft 470 kts 181°
2026-04-29 06:09 9.02175 100.47309 34906 ft 468 kts 180°
2026-04-29 06:10 8.95716 100.47073 34897 ft 465 kts 180°
2026-04-29 06:10 8.89277 100.46840 34890 ft 464 kts 180°
2026-04-29 06:11 8.82841 100.46609 34884 ft 464 kts 180°
2026-04-29 06:11 8.76412 100.46377 34884 ft 464 kts 180°
2026-04-29 06:12 8.69998 100.46144 34873 ft 465 kts 180°
2026-04-29 06:12 8.63557 100.45911 34862 ft 464 kts 180°
2026-04-29 06:13 8.57126 100.45678 34858 ft 464 kts 180°
2026-04-29 06:13 8.50699 100.45445 34857 ft 464 kts 180°
2026-04-29 06:14 8.44247 100.45212 34858 ft 465 kts 180°
2026-04-29 06:14 8.37814 100.44978 34858 ft 465 kts 180°
2026-04-29 06:15 8.31368 100.44743 34856 ft 465 kts 180°
2026-04-29 06:15 8.24927 100.44510 34857 ft 465 kts 180°
2026-04-29 06:16 8.18513 100.44276 34857 ft 464 kts 180°
2026-04-29 06:16 8.12066 100.44041 34856 ft 464 kts 180°
2026-04-29 06:17 8.05644 100.43801 34858 ft 464 kts 181°
2026-04-29 06:17 7.99216 100.43522 34856 ft 464 kts 181°
2026-04-29 06:18 7.92784 100.43233 34853 ft 465 kts 181°
2026-04-29 06:18 7.86350 100.42947 34846 ft 464 kts 181°
2026-04-29 06:19 7.79935 100.42663 34837 ft 464 kts 181°
2026-04-29 06:19 7.73489 100.42378 34830 ft 464 kts 181°
2026-04-29 06:20 7.67058 100.42094 34830 ft 464 kts 181°
2026-04-29 06:20 7.60630 100.41808 34828 ft 465 kts 181°
2026-04-29 06:21 7.54179 100.41522 34828 ft 465 kts 181°
2026-04-29 06:21 7.47733 100.41236 34828 ft 464 kts 181°
2026-04-29 06:22 7.41324 100.40952 34829 ft 465 kts 181°
2026-04-29 06:22 7.34878 100.40666 34828 ft 464 kts 181°
2026-04-29 06:23 7.28453 100.40380 34829 ft 465 kts 181°
2026-04-29 06:23 7.21995 100.40093 34829 ft 465 kts 181°
2026-04-29 06:24 7.15557 100.39807 34828 ft 465 kts 181°
2026-04-29 06:24 7.09152 100.39522 34830 ft 465 kts 181°
2026-04-29 06:25 7.02706 100.39234 34829 ft 464 kts 181°
2026-04-29 06:25 6.96282 100.38949 34829 ft 461 kts 181°
2026-04-29 06:26 6.89936 100.38866 34832 ft 456 kts 178°
2026-04-29 06:26 6.83664 100.38948 34830 ft 453 kts 178°
2026-04-29 06:27 6.77359 100.39029 34828 ft 453 kts 178°
2026-04-29 06:27 6.71080 100.39105 34829 ft 454 kts 178°
2026-04-29 06:28 6.64775 100.39181 34828 ft 453 kts 178°
2026-04-29 06:28 6.58489 100.39256 34829 ft 453 kts 178°
2026-04-29 06:29 6.52227 100.39330 34829 ft 453 kts 178°
2026-04-29 06:29 6.45945 100.39404 34829 ft 453 kts 178°
2026-04-29 06:30 6.36570 100.39513 34830 ft 453 kts 178°
2026-04-29 06:31 6.30277 100.39588 34827 ft 453 kts 178°
2026-04-29 06:31 6.24023 100.39932 34827 ft 452 kts 173°
2026-04-29 06:32 6.17861 100.40994 34828 ft 452 kts 166°
2026-04-29 06:32 6.11829 100.42785 34830 ft 451 kts 160°
2026-04-29 06:33 6.06064 100.45164 34837 ft 451 kts 156°
2026-04-29 06:33 6.00301 100.47665 34841 ft 451 kts 156°
2026-04-29 06:34 5.94566 100.50155 34846 ft 451 kts 156°
2026-04-29 06:34 5.92663 100.50980 34846 ft 451 kts 156°